Time,TemperatureF,DewpointF,PressureIn,WindDirection,WindDirectionDegrees,WindSpeedMPH,WindSpeedGustMPH,Humidity,HourlyPrecipIn,Conditions,Clouds,dailyrainin,SoftwareType,DateUTC
2013-03-01 00:01:00,37.2,30.7,30.10,NW,307,4.6,4.6,77,0.00,CLR,,0.00,WeatherDisplay:10.37,2013-03-01 06:01:00,
2013-03-01 00:06:00,37.0,30.5,30.10,WNW,287,4.0,4.0,77,0.00,CLR,,0.00,WeatherDisplay:10.37,2013-03-01 06:06:00,
2013-03-01 00:11:00,36.9,30.4,30.10,NNW,348,5.0,5.0,77,0.00,CLR,,0.00,WeatherDisplay:10.37,2013-03-01 06:11:00,
2013-03-01 00:16:00,36.9,30.7,30.10,NW,315,9.2,9.2,78,0.00,CLR,,0.00,WeatherDisplay:10.37,2013-03-01 06:16:00,
2013-03-01 00:21:00,36.9,30.7,30.10,NNW,329,4.6,4.6,78,0.00,CLR,,0.00,WeatherDisplay:10.37,2013-03-01 06:21:00,
2013-03-01 00:26:00,36.9,30.7,30.10,NNW,333,5.0,5.0,78,0.00,CLR,,0.00,WeatherDisplay:10.37,2013-03-01 06:26:00,
2013-03-01 00:31:00,36.8,30.6,30.10,NW,317,6.9,6.9,78,0.00,CLR,,0.00,WeatherDisplay:10.37,2013-03-01 06:31:00,
2013-03-01 00:36:00,36.8,30.6,30.10,NW,317,9.2,9.2,78,0.00,CLR,,0.00,WeatherDisplay:10.37,2013-03-01 06:36:00,
2013-03-01 00:41:00,36.7,30.2,30.11,NNW,327,3.5,3.5,77,0.00,CLR,,0.00,WeatherDisplay:10.37,2013-03-01 06:41:00,
2013-03-01 00:46:00,36.6,30.1,30.11,NNW,329,5.0,5.0,77,0.00,CLR,,0.00,WeatherDisplay:10.37,2013-03-01 06:46:00,
2013-03-01 00:51:00,36.5,30.0,30.11,NNW,348,4.6,4.6,77,0.00,CLR,,0.00,WeatherDisplay:10.37,2013-03-01 06:51:00,
2013-03-01 00:56:00,36.5,30.0,30.11,NNW,330,4.0,4.0,77,0.00,CLR,,0.00,WeatherDisplay:10.37,2013-03-01 06:56:00,
2013-03-01 01:01:00,36.4,29.9,30.11,NW,323,5.8,5.8,77,0.00,CLR,,0.00,WeatherDisplay:10.37,2013-03-01 07:01:00,
2013-03-01 01:06:00,36.4,29.9,30.11,WNW,300,5.8,5.8,77,0.00,CLR,,0.00,WeatherDisplay:10.37,2013-03-01 07:06:00,
2013-03-01 01:11:00,36.4,29.9,30.11,NNW,332,3.5,3.5,77,0.00,CLR,,0.00,WeatherDisplay:10.37,2013-03-01 07:11:00,
2013-03-01 01:16:00,36.4,29.6,30.11,WNW,291,4.6,4.6,76,0.00,CLR,,0.00,WeatherDisplay:10.37,2013-03-01 07:16:00,
2013-03-01 01:21:00,36.3,29.5,30.12,NNW,332,3.5,3.5,76,0.00,CLR,,0.00,WeatherDisplay:10.37,2013-03-01 07:21:00,
2013-03-01 01:26:00,36.3,29.5,30.12,NW,326,3.5,3.5,76,0.00,CLR,,0.00,WeatherDisplay:10.37,2013-03-01 07:26:00,
2013-03-01 01:31:00,36.3,29.1,30.12,NNW,337,5.8,5.8,75,0.00,CLR,,0.00,WeatherDisplay:10.37,2013-03-01 07:31:00,
2013-03-01 01:36:00,36.3,29.1,30.12,West,260,4.6,4.6,75,0.00,CLR,,0.00,WeatherDisplay:10.37,2013-03-01 07:36:00,
2013-03-01 01:41:00,36.3,29.1,30.11,NNW,340,7.0,7.0,75,0.00,CLR,,0.00,WeatherDisplay:10.37,2013-03-01 07:41:00,
2013-03-01 01:46:00,36.3,29.1,30.12,North,355,10.4,10.4,75,0.00,CLR,,0.00,WeatherDisplay:10.37,2013-03-01 07:46:00,
2013-03-01 01:51:00,36.3,28.8,30.11,NNW,331,9.2,9.2,74,0.00,CLR,,0.00,WeatherDisplay:10.37,2013-03-01 07:51:00,
2013-03-01 01:56:00,36.3,28.8,30.11,North,5,6.9,6.9,74,0.00,CLR,,0.00,WeatherDisplay:10.37,2013-03-01 07:56:00,
2013-03-01 02:01:00,36.2,28.7,30.12,NNW,348,9.2,9.2,74,0.00,CLR,,0.00,WeatherDisplay:10.37,2013-03-01 08:01:00,
2013-03-01 02:06:00,36.2,29.0,30.11,North,355,10.0,10.0,75,0.00,CLR,,0.00,WeatherDisplay:10.37,2013-03-01 08:06:00,
2013-03-01 02:11:00,36.2,29.0,30.11,North,350,4.6,4.6,75,0.00,CLR,,0.00,WeatherDisplay:10.37,2013-03-01 08:11:00,
2013-03-01 02:16:00,36.1,28.9,30.11,NNW,348,5.8,5.8,75,0.00,CLR,,0.00,WeatherDisplay:10.37,2013-03-01 08:16:00,
2013-03-01 02:21:00,36.0,28.8,30.11,NW,325,3.5,3.5,75,0.00,CLR,,0.00,WeatherDisplay:10.37,2013-03-01 08:21:00,
2013-03-01 02:26:00,36.0,28.8,30.11,NW,318,3.5,3.5,75,0.00,CLR,,0.00,WeatherDisplay:10.37,2013-03-01 08:26:00,
2013-03-01 02:31:00,36.0,28.8,30.11,North,355,3.5,3.5,75,0.00,CLR,,0.00,WeatherDisplay:10.37,2013-03-01 08:31:00,
2013-03-01 02:36:00,36.0,28.8,30.11,NNW,333,3.0,3.0,75,0.00,CLR,,0.00,WeatherDisplay:10.37,2013-03-01 08:36:00,
2013-03-01 02:41:00,36.0,28.8,30.11,NNW,330,4.6,4.6,75,0.00,CLR,,0.00,WeatherDisplay:10.37,2013-03-01 08:41:00,
2013-03-01 02:46:00,36.0,28.8,30.10,WNW,302,10.0,10.0,75,0.00,CLR,,0.00,WeatherDisplay:10.37,2013-03-01 08:46:00,
2013-03-01 02:51:00,36.0,28.8,30.10,NNW,340,3.5,3.5,75,0.00,CLR,,0.00,WeatherDisplay:10.37,2013-03-01 08:51:00,
2013-03-01 02:56:00,35.9,28.7,30.10,NW,318,5.8,5.8,75,0.00,CLR,,0.00,WeatherDisplay:10.37,2013-03-01 08:56:00,
2013-03-01 03:01:00,35.9,29.1,30.10,North,350,6.0,6.0,76,0.00,CLR,,0.00,WeatherDisplay:10.37,2013-03-01 09:01:00,
2013-03-01 03:06:00,35.9,29.1,30.10,West,262,6.9,6.9,76,0.00,CLR,,0.00,WeatherDisplay:10.37,2013-03-01 09:06:00,
2013-03-01 03:11:00,35.8,29.0,30.10,NNW,338,5.8,5.8,76,0.00,CLR,,0.00,WeatherDisplay:10.37,2013-03-01 09:11:00,
2013-03-01 03:16:00,35.8,29.0,30.10,North,350,3.5,3.5,76,0.00,CLR,,0.00,WeatherDisplay:10.37,2013-03-01 09:16:00,
2013-03-01 03:21:00,35.8,29.0,30.10,WNW,299,4.6,5.4,76,0.00,CLR,,0.00,WeatherDisplay:10.37,2013-03-01 09:21:00,
2013-03-01 03:26:00,35.7,28.9,30.10,WNW,286,6.9,6.9,76,0.00,CLR,,0.00,WeatherDisplay:10.37,2013-03-01 09:26:00,
2013-03-01 03:31:00,35.7,29.2,30.10,North,355,4.6,4.6,77,0.00,CLR,,0.00,WeatherDisplay:10.37,2013-03-01 09:31:00,
2013-03-01 03:36:00,35.7,29.2,30.10,NNW,344,6.9,6.9,77,0.00,CLR,,0.00,WeatherDisplay:10.37,2013-03-01 09:36:00,
2013-03-01 03:41:00,35.6,29.1,30.10,NW,314,5.8,5.8,77,0.00,CLR,,0.00,WeatherDisplay:10.37,2013-03-01 09:41:00,
2013-03-01 03:46:00,35.6,29.1,30.10,NNW,348,4.6,0.0,77,0.00,CLR,,0.00,WeatherDisplay:10.37,2013-03-01 09:46:00,
2013-03-01 03:51:00,35.6,29.4,30.10,NW,315,3.5,3.5,78,0.00,CLR,,0.00,WeatherDisplay:10.37,2013-03-01 09:51:00,
2013-03-01 03:56:00,35.6,29.4,30.10,NNW,338,4.6,4.6,78,0.00,CLR,,0.00,WeatherDisplay:10.37,2013-03-01 09:56:00,
2013-03-01 04:01:00,35.6,29.4,30.10,NNW,342,3.5,3.5,78,0.00,CLR,,0.00,WeatherDisplay:10.37,2013-03-01 10:01:00,
2013-03-01 04:06:00,35.6,29.4,30.10,North,355,6.9,6.9,78,0.00,CLR,,0.00,WeatherDisplay:10.37,2013-03-01 10:06:00,
2013-03-01 04:11:00,35.5,29.3,30.10,NW,318,5.8,5.8,78,0.00,CLR,,0.00,WeatherDisplay:10.37,2013-03-01 10:11:00,
2013-03-01 04:17:00,35.5,29.3,30.10,NNW,336,3.5,3.5,78,0.00,CLR,,0.00,WeatherDisplay:10.37,2013-03-01 10:17:00,
2013-03-01 04:22:00,35.5,29.3,30.10,North,355,4.0,4.0,78,0.00,CLR,,0.00,WeatherDisplay:10.37,2013-03-01 10:22:00,
2013-03-01 04:27:00,35.5,29.3,30.10,North,350,4.6,4.6,78,0.00,CLR,,0.00,WeatherDisplay:10.37,2013-03-01 10:27:00,
2013-03-01 04:32:00,35.5,29.3,30.10,NNW,335,4.0,4.0,78,0.00,CLR,,0.00,WeatherDisplay:10.37,2013-03-01 10:32:00,
2013-03-01 04:37:00,35.5,29.3,30.10,NW,323,3.5,3.5,78,0.00,CLR,,0.00,WeatherDisplay:10.37,2013-03-01 10:37:00,
2013-03-01 04:42:00,35.5,29.3,30.10,NNW,348,3.5,3.5,78,0.00,CLR,,0.00,WeatherDisplay:10.37,2013-03-01 10:42:00,
2013-03-01 04:47:00,35.5,29.3,30.10,NNW,342,6.9,6.9,78,0.00,CLR,,0.00,WeatherDisplay:10.37,2013-03-01 10:47:00,
2013-03-01 04:52:00,35.5,29.6,30.11,North,355,3.5,3.5,79,0.00,CLR,,0.00,WeatherDisplay:10.37,2013-03-01 10:52:00,
2013-03-01 04:57:00,35.5,29.3,30.11,NNW,327,3.5,3.5,78,0.00,CLR,,0.00,WeatherDisplay:10.37,2013-03-01 10:57:00,
2013-03-01 05:02:00,35.5,29.3,30.11,WSW,253,5.8,5.8,78,0.00,CLR,,0.00,WeatherDisplay:10.37,2013-03-01 11:02:00,
2013-03-01 05:07:00,35.5,29.6,30.11,NW,315,2.3,2.3,79,0.00,CLR,,0.00,WeatherDisplay:10.37,2013-03-01 11:07:00,
2013-03-01 05:12:00,35.6,29.7,30.11,NNW,346,3.5,3.5,79,0.00,CLR,,0.00,WeatherDisplay:10.37,2013-03-01 11:12:00,
2013-03-01 05:17:00,35.6,29.7,30.11,NNW,339,3.5,3.5,79,0.00,CLR,,0.00,WeatherDisplay:10.37,2013-03-01 11:17:00,
2013-03-01 05:22:00,35.6,29.7,30.11,NNW,346,2.3,2.3,79,0.00,CLR,,0.00,WeatherDisplay:10.37,2013-03-01 11:22:00,
2013-03-01 05:27:00,35.6,29.7,30.11,NNW,346,2.3,2.3,79,0.00,CLR,,0.00,WeatherDisplay:10.37,2013-03-01 11:27:00,
2013-03-01 05:32:00,35.6,29.7,30.10,NW,307,4.6,4.6,79,0.00,CLR,,0.00,WeatherDisplay:10.37,2013-03-01 11:32:00,
2013-03-01 05:37:00,35.6,29.7,30.10,NNW,346,3.5,3.5,79,0.00,CLR,,0.00,WeatherDisplay:10.37,2013-03-01 11:37:00,
2013-03-01 05:42:00,35.6,29.7,30.10,North,350,2.3,2.3,79,0.00,CLR,,0.00,WeatherDisplay:10.37,2013-03-01 11:42:00,
2013-03-01 05:47:00,35.6,29.7,30.11,North,349,2.3,2.3,79,0.00,CLR,,0.00,WeatherDisplay:10.37,2013-03-01 11:47:00,
2013-03-01 05:52:00,35.6,29.7,30.11,North,350,9.2,9.2,79,0.00,CLR,,0.00,WeatherDisplay:10.37,2013-03-01 11:52:00,
2013-03-01 05:57:00,35.6,29.7,30.11,NNW,334,3.5,3.5,79,0.00,CLR,,0.00,WeatherDisplay:10.37,2013-03-01 11:57:00,
2013-03-01 06:02:00,35.6,29.7,30.11,WNW,293,5.8,5.8,79,0.00,CLR,,0.00,WeatherDisplay:10.37,2013-03-01 12:02:00,
2013-03-01 06:07:00,35.6,29.7,30.11,NNW,340,3.5,3.5,79,0.00,CLR,,0.00,WeatherDisplay:10.37,2013-03-01 12:07:00,
2013-03-01 06:12:00,35.6,29.7,30.11,NNW,327,4.6,4.6,79,0.00,CLR,,0.00,WeatherDisplay:10.37,2013-03-01 12:12:00,
2013-03-01 06:17:00,35.5,29.6,30.12,NW,315,3.5,3.5,79,0.00,CLR,,0.00,WeatherDisplay:10.37,2013-03-01 12:17:00,
2013-03-01 06:22:00,35.5,29.6,30.12,West,279,4.6,4.6,79,0.00,CLR,,0.00,WeatherDisplay:10.37,2013-03-01 12:22:00,
2013-03-01 06:27:00,35.4,29.5,30.11,NNW,336,4.0,4.0,79,0.00,CLR,,0.00,WeatherDisplay:10.37,2013-03-01 12:27:00,
2013-03-01 06:32:00,35.4,29.5,30.12,WNW,283,5.8,5.8,79,0.00,CLR,,0.00,WeatherDisplay:10.37,2013-03-01 12:32:00,
2013-03-01 06:37:00,35.3,29.4,30.12,NW,309,4.6,4.6,79,0.00,CLR,,0.00,WeatherDisplay:10.37,2013-03-01 12:37:00,
2013-03-01 06:42:00,35.3,29.4,30.12,NW,321,6.9,6.9,79,0.00,CLR,,0.00,WeatherDisplay:10.37,2013-03-01 12:42:00,
2013-03-01 06:47:00,35.3,29.4,30.12,NW,316,3.5,3.5,79,0.00,CLR,,0.00,WeatherDisplay:10.37,2013-03-01 12:47:00,
2013-03-01 06:52:00,35.3,29.4,30.12,WNW,290,5.8,5.8,79,0.00,CLR,,0.00,WeatherDisplay:10.37,2013-03-01 12:52:00,
2013-03-01 06:57:00,35.3,29.4,30.11,North,349,4.6,4.6,79,0.00,CLR,,0.00,WeatherDisplay:10.37,2013-03-01 12:57:00,
2013-03-01 07:02:00,35.3,29.4,30.11,WNW,286,6.0,6.0,79,0.00,CLR,,0.00,WeatherDisplay:10.37,2013-03-01 13:02:00,
2013-03-01 07:07:00,35.3,29.4,30.11,NNW,342,9.2,9.2,79,0.00,CLR,,0.00,WeatherDisplay:10.37,2013-03-01 13:07:00,
2013-03-01 07:12:00,35.3,29.4,30.12,WNW,292,3.5,3.5,79,0.00,CLR,,0.00,WeatherDisplay:10.37,2013-03-01 13:12:00,
2013-03-01 07:17:00,35.3,29.4,30.12,NW,317,4.6,4.6,79,0.00,CLR,,0.00,WeatherDisplay:10.37,2013-03-01 13:17:00,
2013-03-01 07:22:00,35.4,29.5,30.12,NNW,348,6.0,6.0,79,0.00,CLR,,0.00,WeatherDisplay:10.37,2013-03-01 13:22:00,
2013-03-01 07:27:00,35.5,29.6,30.12,NNW,329,3.5,3.5,79,0.00,CLR,,0.00,WeatherDisplay:10.37,2013-03-01 13:27:00,
2013-03-01 07:32:00,35.5,29.6,30.12,NNW,333,8.1,8.1,79,0.00,CLR,,0.00,WeatherDisplay:10.37,2013-03-01 13:32:00,
2013-03-01 07:37:00,35.5,29.3,30.12,NNW,347,3.5,3.5,78,0.00,CLR,,0.00,WeatherDisplay:10.37,2013-03-01 13:37:00,
2013-03-01 07:42:00,35.5,29.3,30.13,WNW,290,3.5,3.5,78,0.00,CLR,,0.00,WeatherDisplay:10.37,2013-03-01 13:42:00,
2013-03-01 07:47:00,35.6,29.4,30.13,NNW,338,3.5,3.5,78,0.00,CLR,,0.00,WeatherDisplay:10.37,2013-03-01 13:47:00,
2013-03-01 07:52:00,35.7,29.5,30.13,NW,315,6.9,6.9,78,0.00,CLR,,0.00,WeatherDisplay:10.37,2013-03-01 13:52:00,
2013-03-01 07:57:00,35.7,29.5,30.13,NW,316,9.2,9.2,78,0.00,CLR,,0.00,WeatherDisplay:10.37,2013-03-01 13:57:00,
2013-03-01 08:02:00,35.8,29.6,30.13,NW,304,5.0,5.0,78,0.00,CLR,,0.00,WeatherDisplay:10.37,2013-03-01 14:02:00,
2013-03-01 08:07:00,35.8,29.6,30.13,NW,307,10.4,10.4,78,0.00,CLR,,0.00,WeatherDisplay:10.37,2013-03-01 14:07:00,
2013-03-01 08:12:00,35.9,29.7,30.13,WNW,284,5.0,5.0,78,0.00,CLR,,0.00,WeatherDisplay:10.37,2013-03-01 14:12:00,
2013-03-01 08:17:00,35.9,29.7,30.13,West,275,3.5,3.5,78,0.00,CLR,,0.00,WeatherDisplay:10.37,2013-03-01 14:17:00,
2013-03-01 08:22:00,36.0,29.8,30.13,West,279,4.6,4.6,78,0.00,CLR,,0.00,WeatherDisplay:10.37,2013-03-01 14:22:00,
2013-03-01 08:27:00,36.1,29.6,30.14,West,279,5.8,5.8,77,0.00,CLR,,0.00,WeatherDisplay:10.37,2013-03-01 14:27:00,
2013-03-01 08:32:00,36.1,29.6,30.14,NW,307,11.5,11.5,77,0.00,CLR,,0.00,WeatherDisplay:10.37,2013-03-01 14:32:00,
2013-03-01 08:37:00,36.2,29.7,30.14,NW,317,4.0,4.0,77,0.00,CLR,,0.00,WeatherDisplay:10.37,2013-03-01 14:37:00,
2013-03-01 08:42:00,36.2,29.7,30.14,WNW,300,5.8,5.8,77,0.00,CLR,,0.00,WeatherDisplay:10.37,2013-03-01 14:42:00,
2013-03-01 08:47:00,36.1,29.6,30.14,NW,321,9.2,9.2,77,0.00,CLR,,0.00,WeatherDisplay:10.37,2013-03-01 14:47:00,
2013-03-01 08:52:00,36.1,29.6,30.14,WNW,290,5.8,5.8,77,0.00,CLR,,0.00,WeatherDisplay:10.37,2013-03-01 14:52:00,
2013-03-01 08:57:00,36.1,29.6,30.14,NW,319,4.6,4.6,77,0.00,CLR,,0.00,WeatherDisplay:10.37,2013-03-01 14:57:00,
2013-03-01 09:02:00,36.2,29.7,30.14,NNW,327,5.8,5.8,77,0.00,CLR,,0.00,WeatherDisplay:10.37,2013-03-01 15:02:00,
2013-03-01 09:07:00,36.3,29.8,30.14,WNW,298,9.2,9.2,77,0.00,CLR,,0.00,WeatherDisplay:10.37,2013-03-01 15:07:00,
2013-03-01 09:12:00,36.4,29.9,30.14,NNW,336,3.5,3.5,77,0.00,CLR,,0.00,WeatherDisplay:10.37,2013-03-01 15:12:00,
2013-03-01 09:17:00,36.5,30.0,30.15,NW,305,4.6,4.6,77,0.00,CLR,,0.00,WeatherDisplay:10.37,2013-03-01 15:17:00,
2013-03-01 09:22:00,36.7,30.2,30.15,NNW,342,2.3,2.3,77,0.00,CLR,,0.00,WeatherDisplay:10.37,2013-03-01 15:22:00,
2013-03-01 09:27:00,36.9,30.4,30.15,North,355,2.3,2.3,77,0.00,CLR,,0.00,WeatherDisplay:10.37,2013-03-01 15:27:00,
2013-03-01 09:32:00,37.0,30.5,30.14,NNW,327,5.0,5.0,77,0.00,CLR,,0.00,WeatherDisplay:10.37,2013-03-01 15:32:00,
2013-03-01 09:37:00,37.2,30.3,30.15,NNW,327,3.5,3.5,76,0.00,CLR,,0.00,WeatherDisplay:10.37,2013-03-01 15:37:00,
2013-03-01 09:42:00,37.3,30.4,30.15,NW,326,7.0,7.0,76,0.00,CLR,,0.00,WeatherDisplay:10.37,2013-03-01 15:42:00,
2013-03-01 09:47:00,37.3,30.1,30.15,NNW,333,3.5,3.5,75,0.00,CLR,,0.00,WeatherDisplay:10.37,2013-03-01 15:47:00,
2013-03-01 09:52:00,37.3,30.1,30.15,NW,306,4.6,4.6,75,0.00,CLR,,0.00,WeatherDisplay:10.37,2013-03-01 15:52:00,
2013-03-01 09:58:00,37.4,30.5,30.15,NNW,333,3.5,3.5,76,0.00,CLR,,0.00,WeatherDisplay:10.37,2013-03-01 15:58:00,
2013-03-01 10:03:00,37.5,30.3,30.15,North,355,3.5,3.5,75,0.00,CLR,,0.00,WeatherDisplay:10.37,2013-03-01 16:03:00,
2013-03-01 10:08:00,37.7,30.5,30.15,WNW,300,7.0,7.0,75,0.00,CLR,,0.00,WeatherDisplay:10.37,2013-03-01 16:08:00,
2013-03-01 10:13:00,37.5,30.0,30.15,WNW,299,5.8,5.8,74,0.00,CLR,,0.00,WeatherDisplay:10.37,2013-03-01 16:13:00,
2013-03-01 10:18:00,37.3,29.8,30.15,NNW,327,6.9,6.9,74,0.00,CLR,,0.00,WeatherDisplay:10.37,2013-03-01 16:18:00,
2013-03-01 10:23:00,37.0,30.1,30.16,West,273,9.2,9.2,76,0.00,CLR,,0.00,WeatherDisplay:10.37,2013-03-01 16:23:00,
2013-03-01 10:28:00,36.8,29.9,30.16,WNW,284,4.6,4.6,76,0.00,CLR,,0.00,WeatherDisplay:10.37,2013-03-01 16:28:00,
2013-03-01 10:33:00,36.8,30.3,30.16,NW,304,7.0,7.0,77,0.00,CLR,,0.00,WeatherDisplay:10.37,2013-03-01 16:33:00,
2013-03-01 10:38:00,36.7,29.8,30.16,NNW,333,9.2,9.2,76,0.00,CLR,,0.00,WeatherDisplay:10.37,2013-03-01 16:38:00,
2013-03-01 10:43:00,36.6,29.7,30.16,West,270,5.0,5.0,76,0.00,CLR,,0.00,WeatherDisplay:10.37,2013-03-01 16:43:00,
2013-03-01 10:48:00,36.6,29.7,30.16,WNW,294,5.8,5.8,76,0.00,CLR,,0.00,WeatherDisplay:10.37,2013-03-01 16:48:00,
2013-03-01 10:53:00,36.7,29.8,30.16,West,275,4.6,4.6,76,0.00,CLR,,0.00,WeatherDisplay:10.37,2013-03-01 16:53:00,
2013-03-01 10:58:00,37.0,29.8,30.16,West,266,6.9,6.9,75,0.00,CLR,,0.00,WeatherDisplay:10.37,2013-03-01 16:58:00,
2013-03-01 11:03:00,37.2,30.0,30.15,WNW,288,5.8,5.8,75,0.00,CLR,,0.00,WeatherDisplay:10.37,2013-03-01 17:03:00,
2013-03-01 11:08:00,37.3,29.4,30.15,NNW,344,3.5,3.5,73,0.00,CLR,,0.00,WeatherDisplay:10.37,2013-03-01 17:08:00,
2013-03-01 11:13:00,37.5,29.6,30.15,West,270,5.8,5.8,73,0.00,CLR,,0.00,WeatherDisplay:10.37,2013-03-01 17:13:00,
2013-03-01 11:18:00,37.5,29.6,30.15,West,279,3.5,3.5,73,0.00,CLR,,0.00,WeatherDisplay:10.37,2013-03-01 17:18:00,
2013-03-01 11:23:00,37.6,30.1,30.15,NW,318,5.8,5.8,74,0.00,CLR,,0.00,WeatherDisplay:10.37,2013-03-01 17:23:00,
2013-03-01 11:28:00,37.8,30.3,30.15,NW,319,4.6,4.6,74,0.00,CLR,,0.00,WeatherDisplay:10.37,2013-03-01 17:28:00,
2013-03-01 11:33:00,38.3,30.4,30.15,NNW,336,4.6,4.6,73,0.00,CLR,,0.00,WeatherDisplay:10.37,2013-03-01 17:33:00,
2013-03-01 11:38:00,38.6,30.0,30.15,WNW,283,10.4,10.4,71,0.00,CLR,,0.00,WeatherDisplay:10.37,2013-03-01 17:38:00,
2013-03-01 11:43:00,38.7,30.1,30.15,WNW,296,5.8,5.8,71,0.00,CLR,,0.00,WeatherDisplay:10.37,2013-03-01 17:43:00,
2013-03-01 11:48:00,38.8,30.2,30.15,NNW,332,10.4,10.4,71,0.00,CLR,,0.00,WeatherDisplay:10.37,2013-03-01 17:48:00,
2013-03-01 11:53:00,39.0,30.0,30.14,WNW,295,6.9,6.9,70,0.00,CLR,,0.00,WeatherDisplay:10.37,2013-03-01 17:53:00,
2013-03-01 11:58:00,39.4,30.1,30.14,WNW,284,4.6,4.6,69,0.00,CLR,,0.00,WeatherDisplay:10.37,2013-03-01 17:58:00,
2013-03-01 12:03:00,39.5,29.8,30.14,NW,315,6.9,6.9,68,0.00,CLR,,0.00,WeatherDisplay:10.37,2013-03-01 18:03:00,
2013-03-01 12:08:00,39.5,29.4,30.14,WNW,296,9.2,9.2,67,0.00,CLR,,0.00,WeatherDisplay:10.37,2013-03-01 18:08:00,
2013-03-01 12:13:00,39.4,29.3,30.14,NW,313,6.9,6.9,67,0.00,CLR,,0.00,WeatherDisplay:10.37,2013-03-01 18:13:00,
2013-03-01 12:18:00,39.4,29.7,30.14,WNW,287,3.5,3.5,68,0.00,CLR,,0.00,WeatherDisplay:10.37,2013-03-01 18:18:00,
2013-03-01 12:23:00,39.3,29.6,30.14,WNW,288,10.4,10.4,68,0.00,CLR,,0.00,WeatherDisplay:10.37,2013-03-01 18:23:00,
2013-03-01 12:28:00,38.9,28.9,30.13,NW,315,9.2,9.2,67,0.00,CLR,,0.00,WeatherDisplay:10.37,2013-03-01 18:28:00,
2013-03-01 12:33:00,38.6,28.9,30.13,NNW,327,11.0,11.0,68,0.00,CLR,,0.00,WeatherDisplay:10.37,2013-03-01 18:33:00,
2013-03-01 12:38:00,38.4,29.1,30.13,NW,305,10.4,10.4,69,0.00,CLR,,0.00,WeatherDisplay:10.37,2013-03-01 18:38:00,
2013-03-01 12:43:00,38.3,29.4,30.13,WNW,298,10.4,10.4,70,0.00,CLR,,0.00,WeatherDisplay:10.37,2013-03-01 18:43:00,
2013-03-01 12:48:00,38.1,29.5,30.13,NW,310,11.5,11.5,71,0.00,CLR,,0.00,WeatherDisplay:10.37,2013-03-01 18:48:00,
2013-03-01 12:53:00,38.1,29.5,30.13,WNW,294,3.5,3.5,71,0.00,CLR,,0.00,WeatherDisplay:10.37,2013-03-01 18:53:00,
2013-03-01 12:58:00,38.2,29.6,30.13,West,280,9.0,9.0,71,0.00,CLR,,0.00,WeatherDisplay:10.37,2013-03-01 18:58:00,
2013-03-01 13:03:00,38.2,29.3,30.13,WNW,295,6.9,6.9,70,0.00,CLR,,0.00,WeatherDisplay:10.37,2013-03-01 19:03:00,
2013-03-01 13:08:00,38.1,29.2,30.12,NW,309,10.4,10.4,70,0.00,CLR,,0.00,WeatherDisplay:10.37,2013-03-01 19:08:00,
2013-03-01 13:13:00,38.0,29.1,30.12,WNW,288,6.9,6.9,70,0.00,CLR,,0.00,WeatherDisplay:10.37,2013-03-01 19:13:00,
2013-03-01 13:18:00,38.1,29.5,30.12,West,272,9.2,9.2,71,0.00,CLR,,0.00,WeatherDisplay:10.37,2013-03-01 19:18:00,
2013-03-01 13:23:00,37.8,29.6,30.12,NW,313,11.5,11.5,72,0.00,CLR,,0.00,WeatherDisplay:10.37,2013-03-01 19:23:00,
2013-03-01 13:28:00,37.6,29.4,30.12,NNW,342,6.0,6.0,72,0.00,CLR,,0.00,WeatherDisplay:10.37,2013-03-01 19:28:00,
2013-03-01 13:33:00,37.5,29.3,30.12,NNW,337,11.5,11.5,72,0.00,CLR,,0.00,WeatherDisplay:10.37,2013-03-01 19:33:00,
2013-03-01 13:38:00,37.6,29.7,30.12,WNW,290,8.1,8.1,73,0.00,CLR,,0.00,WeatherDisplay:10.37,2013-03-01 19:38:00,
2013-03-01 13:43:00,37.8,29.9,30.11,NW,311,10.4,10.4,73,0.00,CLR,,0.00,WeatherDisplay:10.37,2013-03-01 19:43:00,
2013-03-01 13:48:00,37.9,29.7,30.11,NNW,344,4.0,4.0,72,0.00,CLR,,0.00,WeatherDisplay:10.37,2013-03-01 19:48:00,
2013-03-01 13:53:00,38.0,29.8,30.11,NNW,327,11.5,11.5,72,0.00,CLR,,0.00,WeatherDisplay:10.37,2013-03-01 19:53:00,
2013-03-01 13:58:00,38.1,29.9,30.11,NW,305,4.6,4.6,72,0.00,CLR,,0.00,WeatherDisplay:10.37,2013-03-01 19:58:00,
2013-03-01 14:03:00,38.2,30.0,30.11,NNW,344,5.8,5.8,72,0.00,CLR,,0.00,WeatherDisplay:10.37,2013-03-01 20:03:00,
2013-03-01 14:08:00,38.3,30.1,30.11,NW,322,4.6,4.6,72,0.00,CLR,,0.00,WeatherDisplay:10.37,2013-03-01 20:08:00,
2013-03-01 14:13:00,38.5,29.9,30.12,NNW,335,11.5,11.5,71,0.00,CLR,,0.00,WeatherDisplay:10.37,2013-03-01 20:13:00,
2013-03-01 14:18:00,38.5,29.9,30.11,NW,314,5.8,5.8,71,0.00,CLR,,0.00,WeatherDisplay:10.37,2013-03-01 20:18:00,
2013-03-01 14:23:00,38.5,29.9,30.11,WNW,302,3.5,3.5,71,0.00,CLR,,0.00,WeatherDisplay:10.37,2013-03-01 20:23:00,
2013-03-01 14:28:00,38.6,30.0,30.12,WNW,295,10.0,10.0,71,0.00,CLR,,0.00,WeatherDisplay:10.37,2013-03-01 20:28:00,
2013-03-01 14:33:00,38.5,29.9,30.11,WNW,302,4.6,4.6,71,0.00,CLR,,0.00,WeatherDisplay:10.37,2013-03-01 20:33:00,
2013-03-01 14:38:00,38.3,29.7,30.11,NW,308,7.0,7.0,71,0.00,CLR,,0.00,WeatherDisplay:10.37,2013-03-01 20:38:00,
2013-03-01 14:43:00,38.2,30.0,30.11,North,355,6.9,6.9,72,0.00,CLR,,0.00,WeatherDisplay:10.37,2013-03-01 20:43:00,
2013-03-01 14:48:00,38.2,30.6,30.11,North,355,4.6,4.6,74,0.00,CLR,,0.00,WeatherDisplay:10.37,2013-03-01 20:48:00,
2013-03-01 14:53:00,38.1,30.9,30.11,NNW,345,3.5,3.5,75,0.00,CLR,,0.00,WeatherDisplay:10.37,2013-03-01 20:53:00,
2013-03-01 14:58:00,37.9,30.7,30.11,WSW,252,5.8,5.8,75,0.00,CLR,,0.00,WeatherDisplay:10.37,2013-03-01 20:58:00,
2013-03-01 15:03:00,37.6,30.4,30.11,NW,311,7.0,7.0,75,0.00,CLR,,0.00,WeatherDisplay:10.37,2013-03-01 21:03:00,
2013-03-01 15:08:00,37.2,30.7,30.12,WNW,283,5.8,5.8,77,0.00,CLR,,0.00,WeatherDisplay:10.37,2013-03-01 21:08:00,
2013-03-01 15:13:00,36.9,30.7,30.12,WNW,296,4.6,4.6,78,0.00,CLR,,0.00,WeatherDisplay:10.37,2013-03-01 21:13:00,
2013-03-01 15:18:00,36.8,30.9,30.12,WNW,288,5.8,5.8,79,0.00,CLR,,0.00,WeatherDisplay:10.37,2013-03-01 21:18:00,
2013-03-01 15:23:00,36.7,30.8,30.12,NNW,327,3.5,3.5,79,0.00,CLR,,0.00,WeatherDisplay:10.37,2013-03-01 21:23:00,
2013-03-01 15:28:00,36.8,31.2,30.12,NNW,333,6.9,6.9,80,0.00,CLR,,0.00,WeatherDisplay:10.37,2013-03-01 21:28:00,
2013-03-01 15:33:00,37.0,31.4,30.12,NW,325,4.6,4.6,80,0.00,CLR,,0.00,WeatherDisplay:10.37,2013-03-01 21:33:00,
2013-03-01 15:38:00,37.1,31.2,30.11,NNW,344,3.5,3.5,79,0.00,CLR,,0.00,WeatherDisplay:10.37,2013-03-01 21:38:00,
2013-03-01 15:43:00,37.3,31.1,30.11,West,279,3.5,3.5,78,0.00,CLR,,0.00,WeatherDisplay:10.37,2013-03-01 21:43:00,
2013-03-01 15:48:00,37.3,30.4,30.12,WNW,295,6.9,6.9,76,0.00,CLR,,0.00,WeatherDisplay:10.37,2013-03-01 21:48:00,
2013-03-01 15:53:00,37.3,30.1,30.11,WNW,290,6.0,6.0,75,0.00,CLR,,0.00,WeatherDisplay:10.37,2013-03-01 21:53:00,
2013-03-01 15:58:00,37.3,29.8,30.11,NW,315,5.8,5.8,74,0.00,CLR,,0.00,WeatherDisplay:10.37,2013-03-01 21:58:00,
2013-03-01 16:03:00,37.3,29.8,30.11,NNW,338,6.9,6.9,74,0.00,CLR,,0.00,WeatherDisplay:10.37,2013-03-01 22:03:00,
2013-03-01 16:08:00,37.4,29.9,30.11,WNW,296,10.4,10.4,74,0.00,CLR,,0.00,WeatherDisplay:10.37,2013-03-01 22:08:00,
2013-03-01 16:13:00,37.3,29.8,30.11,NW,315,4.6,4.6,74,0.00,CLR,,0.00,WeatherDisplay:10.37,2013-03-01 22:13:00,
2013-03-01 16:18:00,37.3,29.8,30.11,NNW,343,10.4,10.4,74,0.00,CLR,,0.00,WeatherDisplay:10.37,2013-03-01 22:18:00,
2013-03-01 16:23:00,37.2,29.7,30.11,WNW,299,3.5,3.5,74,0.00,CLR,,0.00,WeatherDisplay:10.37,2013-03-01 22:23:00,
2013-03-01 16:28:00,37.2,30.0,30.11,NW,304,6.9,6.9,75,0.00,CLR,,0.00,WeatherDisplay:10.37,2013-03-01 22:28:00,
2013-03-01 16:33:00,37.2,30.0,30.11,West,281,9.2,9.2,75,0.00,CLR,,0.00,WeatherDisplay:10.37,2013-03-01 22:33:00,
2013-03-01 16:38:00,37.1,30.2,30.12,WNW,299,6.9,6.9,76,0.00,CLR,,0.00,WeatherDisplay:10.37,2013-03-01 22:38:00,
2013-03-01 16:43:00,37.1,30.2,30.12,West,280,4.6,4.6,76,0.00,CLR,,0.00,WeatherDisplay:10.37,2013-03-01 22:43:00,
2013-03-01 16:48:00,37.1,30.2,30.12,WNW,293,4.0,4.0,76,0.00,CLR,,0.00,WeatherDisplay:10.37,2013-03-01 22:48:00,
2013-03-01 16:53:00,37.1,30.2,30.12,WNW,303,7.0,7.0,76,0.00,CLR,,0.00,WeatherDisplay:10.37,2013-03-01 22:53:00,
2013-03-01 16:58:00,37.1,30.2,30.13,NW,321,6.0,6.0,76,0.00,CLR,,0.00,WeatherDisplay:10.37,2013-03-01 22:58:00,
2013-03-01 17:03:00,37.2,30.3,30.13,WNW,298,9.2,9.2,76,0.00,CLR,,0.00,WeatherDisplay:10.37,2013-03-01 23:03:00,
2013-03-01 17:08:00,36.9,29.7,30.13,SW,219,10.4,10.4,75,0.00,CLR,,0.00,WeatherDisplay:10.37,2013-03-01 23:08:00,
2013-03-01 17:13:00,36.6,29.7,30.13,NW,310,9.2,9.2,76,0.00,CLR,,0.00,WeatherDisplay:10.37,2013-03-01 23:13:00,
2013-03-01 17:18:00,36.4,29.9,30.14,WNW,303,5.8,5.8,77,0.00,CLR,,0.00,WeatherDisplay:10.37,2013-03-01 23:18:00,
2013-03-01 17:23:00,36.2,30.3,30.14,WNW,292,4.0,4.0,79,0.00,CLR,,0.00,WeatherDisplay:10.37,2013-03-01 23:23:00,
2013-03-01 17:29:00,35.9,30.0,30.14,NNW,329,4.6,4.6,79,0.00,CLR,,0.00,WeatherDisplay:10.37,2013-03-01 23:29:00,
2013-03-01 17:34:00,35.8,30.2,30.14,NNW,340,3.5,3.5,80,0.00,CLR,,0.00,WeatherDisplay:10.37,2013-03-01 23:34:00,
2013-03-01 17:39:00,35.7,30.1,30.14,West,268,3.5,3.5,80,0.00,CLR,,0.00,WeatherDisplay:10.37,2013-03-01 23:39:00,
2013-03-01 17:44:00,35.8,30.5,30.14,WNW,298,3.5,3.5,81,0.00,CLR,,0.00,WeatherDisplay:10.37,2013-03-01 23:44:00,
2013-03-01 17:49:00,35.9,30.6,30.14,NW,311,4.6,4.6,81,0.00,CLR,,0.00,WeatherDisplay:10.37,2013-03-01 23:49:00,
2013-03-01 17:54:00,35.9,30.6,30.15,NW,315,6.9,6.9,81,0.00,CLR,,0.00,WeatherDisplay:10.37,2013-03-01 23:54:00,
2013-03-01 17:59:00,36.0,30.7,30.15,NW,309,4.6,4.6,81,0.00,CLR,,0.00,WeatherDisplay:10.37,2013-03-01 23:59:00,
2013-03-01 18:04:00,36.0,30.4,30.15,NW,319,5.8,5.8,80,0.00,CLR,,0.00,WeatherDisplay:10.37,2013-03-02 00:04:00,
2013-03-01 18:09:00,36.0,30.4,30.15,NNW,340,5.8,5.8,80,0.00,CLR,,0.00,WeatherDisplay:10.37,2013-03-02 00:09:00,
2013-03-01 18:14:00,36.0,30.4,30.16,NNW,327,10.4,10.4,80,0.00,CLR,,0.00,WeatherDisplay:10.37,2013-03-02 00:14:00,
2013-03-01 18:19:00,35.8,30.2,30.16,North,355,6.9,6.9,80,0.00,CLR,,0.00,WeatherDisplay:10.37,2013-03-02 00:19:00,
2013-03-01 18:24:00,35.6,30.3,30.16,WNW,283,4.0,4.0,81,0.00,CLR,,0.00,WeatherDisplay:10.37,2013-03-02 00:24:00,
2013-03-01 18:29:00,35.5,30.2,30.16,WNW,287,4.6,4.6,81,0.00,CLR,,0.00,WeatherDisplay:10.37,2013-03-02 00:29:00,
2013-03-01 18:34:00,35.5,29.9,30.16,West,281,6.9,6.9,80,0.00,CLR,,0.00,WeatherDisplay:10.37,2013-03-02 00:34:00,
2013-03-01 18:39:00,35.5,29.9,30.16,West,263,5.8,5.8,80,0.00,CLR,,0.00,WeatherDisplay:10.37,2013-03-02 00:39:00,
2013-03-01 18:44:00,35.5,29.6,30.16,NW,316,6.9,6.9,79,0.00,CLR,,0.00,WeatherDisplay:10.37,2013-03-02 00:44:00,
2013-03-01 18:49:00,35.6,29.7,30.16,NNW,328,4.6,4.6,79,0.00,CLR,,0.00,WeatherDisplay:10.37,2013-03-02 00:49:00,
2013-03-01 18:54:00,35.7,29.5,30.16,NNW,348,6.9,6.9,78,0.00,CLR,,0.00,WeatherDisplay:10.37,2013-03-02 00:54:00,
2013-03-01 18:59:00,35.7,29.5,30.16,WNW,291,10.4,10.4,78,0.00,CLR,,0.00,WeatherDisplay:10.37,2013-03-02 00:59:00,
2013-03-01 19:04:00,35.7,29.2,30.16,NW,312,6.9,6.9,77,0.00,CLR,,0.00,WeatherDisplay:10.37,2013-03-02 01:04:00,
2013-03-01 19:09:00,35.8,29.3,30.16,WNW,300,6.9,6.9,77,0.00,CLR,,0.00,WeatherDisplay:10.37,2013-03-02 01:09:00,
2013-03-01 19:14:00,35.8,29.3,30.16,WNW,298,4.6,4.6,77,0.00,CLR,,0.00,WeatherDisplay:10.37,2013-03-02 01:14:00,
2013-03-01 19:19:00,35.9,29.4,30.16,WNW,286,3.5,3.5,77,0.00,CLR,,0.00,WeatherDisplay:10.37,2013-03-02 01:19:00,
2013-03-01 19:24:00,35.9,29.4,30.16,WNW,294,5.0,5.0,77,0.00,CLR,,0.00,WeatherDisplay:10.37,2013-03-02 01:24:00,
2013-03-01 19:29:00,35.8,29.0,30.16,WNW,289,3.5,3.5,76,0.00,CLR,,0.00,WeatherDisplay:10.37,2013-03-02 01:29:00,
2013-03-01 19:34:00,35.8,29.0,30.16,WSW,249,6.9,6.9,76,0.00,CLR,,0.00,WeatherDisplay:10.37,2013-03-02 01:34:00,
2013-03-01 19:39:00,35.8,29.0,30.16,WNW,284,3.5,3.5,76,0.00,CLR,,0.00,WeatherDisplay:10.37,2013-03-02 01:39:00,
2013-03-01 19:44:00,35.8,29.0,30.16,WNW,286,3.5,3.5,76,0.00,CLR,,0.00,WeatherDisplay:10.37,2013-03-02 01:44:00,
2013-03-01 19:49:00,35.7,28.9,30.16,NNW,342,6.0,6.0,76,0.00,CLR,,0.00,WeatherDisplay:10.37,2013-03-02 01:49:00,
2013-03-01 19:54:00,35.8,29.0,30.16,WNW,288,3.5,3.5,76,0.00,CLR,,0.00,WeatherDisplay:10.37,2013-03-02 01:54:00,
2013-03-01 19:59:00,35.8,29.0,30.16,NW,315,4.6,4.6,76,0.00,CLR,,0.00,WeatherDisplay:10.37,2013-03-02 01:59:00,
2013-03-01 20:04:00,35.7,28.6,30.16,NW,304,3.5,3.5,75,0.00,CLR,,0.00,WeatherDisplay:10.37,2013-03-02 02:04:00,
2013-03-01 20:09:00,35.7,28.2,30.16,NNW,328,3.5,3.5,74,0.00,CLR,,0.00,WeatherDisplay:10.37,2013-03-02 02:09:00,
2013-03-01 20:14:00,35.7,28.2,30.16,NNW,327,3.5,3.5,74,0.00,CLR,,0.00,WeatherDisplay:10.37,2013-03-02 02:14:00,
2013-03-01 20:19:00,35.7,27.9,30.16,WNW,288,5.8,5.8,73,0.00,CLR,,0.00,WeatherDisplay:10.37,2013-03-02 02:19:00,
2013-03-01 20:24:00,35.8,27.7,30.16,WNW,296,7.0,7.0,72,0.00,CLR,,0.00,WeatherDisplay:10.37,2013-03-02 02:24:00,
2013-03-01 20:29:00,35.8,27.7,30.16,NW,319,4.6,4.6,72,0.00,CLR,,0.00,WeatherDisplay:10.37,2013-03-02 02:29:00,
2013-03-01 20:34:00,35.8,27.7,30.16,West,281,11.5,11.5,72,0.00,CLR,,0.00,WeatherDisplay:10.37,2013-03-02 02:34:00,
2013-03-01 20:39:00,35.7,27.6,30.17,NW,309,6.9,6.9,72,0.00,CLR,,0.00,WeatherDisplay:10.37,2013-03-02 02:39:00,
2013-03-01 20:44:00,35.7,27.6,30.17,West,279,4.0,4.0,72,0.00,CLR,,0.00,WeatherDisplay:10.37,2013-03-02 02:44:00,
2013-03-01 20:49:00,35.8,27.7,30.17,WNW,287,6.0,6.0,72,0.00,CLR,,0.00,WeatherDisplay:10.37,2013-03-02 02:49:00,
2013-03-01 20:54:00,35.8,27.7,30.17,NW,313,3.5,3.5,72,0.00,CLR,,0.00,WeatherDisplay:10.37,2013-03-02 02:54:00,
2013-03-01 20:59:00,35.8,27.7,30.17,West,277,5.8,5.8,72,0.00,CLR,,0.00,WeatherDisplay:10.37,2013-03-02 02:59:00,
2013-03-01 21:04:00,35.8,27.7,30.17,North,355,8.1,8.1,72,0.00,CLR,,0.00,WeatherDisplay:10.37,2013-03-02 03:04:00,
2013-03-01 21:09:00,35.9,27.7,30.17,NNW,331,5.8,5.8,72,0.00,CLR,,0.00,WeatherDisplay:10.37,2013-03-02 03:09:00,
2013-03-01 21:14:00,35.9,27.7,30.17,NW,325,6.9,6.9,72,0.00,CLR,,0.00,WeatherDisplay:10.37,2013-03-02 03:14:00,
2013-03-01 21:19:00,35.8,28.0,30.17,NW,325,4.0,4.0,73,0.00,CLR,,0.00,WeatherDisplay:10.37,2013-03-02 03:19:00,
2013-03-01 21:24:00,35.7,27.9,30.17,NW,304,3.5,3.5,73,0.00,CLR,,0.00,WeatherDisplay:10.37,2013-03-02 03:24:00,
2013-03-01 21:29:00,35.7,27.9,30.17,NNW,342,5.8,5.8,73,0.00,CLR,,0.00,WeatherDisplay:10.37,2013-03-02 03:29:00,
2013-03-01 21:34:00,35.5,27.7,30.17,NNW,339,11.5,11.5,73,0.00,CLR,,0.00,WeatherDisplay:10.37,2013-03-02 03:34:00,
2013-03-01 21:39:00,35.4,27.6,30.17,NNW,345,4.6,4.6,73,0.00,CLR,,0.00,WeatherDisplay:10.37,2013-03-02 03:39:00,
2013-03-01 21:44:00,35.2,27.4,30.17,NW,309,11.5,11.5,73,0.00,CLR,,0.00,WeatherDisplay:10.37,2013-03-02 03:44:00,
2013-03-01 21:49:00,35.1,27.3,30.17,NW,323,10.4,10.4,73,0.00,CLR,,0.00,WeatherDisplay:10.37,2013-03-02 03:49:00,
2013-03-01 21:54:00,35.0,27.5,30.17,West,270,5.8,5.8,74,0.00,CLR,,0.00,WeatherDisplay:10.37,2013-03-02 03:54:00,
2013-03-01 21:59:00,34.9,27.5,30.17,WNW,302,10.4,10.4,74,0.00,CLR,,0.00,WeatherDisplay:10.37,2013-03-02 03:59:00,
2013-03-01 22:04:00,34.9,27.8,30.17,NW,304,11.5,11.5,75,0.00,CLR,,0.00,WeatherDisplay:10.37,2013-03-02 04:04:00,
2013-03-01 22:09:00,34.9,27.8,30.17,NW,317,10.4,10.4,75,0.00,CLR,,0.00,WeatherDisplay:10.37,2013-03-02 04:09:00,
2013-03-01 22:14:00,34.8,27.7,30.17,NNW,327,6.9,6.9,75,0.00,CLR,,0.00,WeatherDisplay:10.37,2013-03-02 04:14:00,
2013-03-01 22:19:00,34.9,27.8,30.17,NW,311,2.3,2.3,75,0.00,CLR,,0.00,WeatherDisplay:10.37,2013-03-02 04:19:00,
2013-03-01 22:24:00,34.9,28.1,30.17,NW,322,10.4,10.4,76,0.00,CLR,,0.00,WeatherDisplay:10.37,2013-03-02 04:24:00,
2013-03-01 22:29:00,34.8,28.0,30.17,WNW,288,4.0,4.0,76,0.00,CLR,,0.00,WeatherDisplay:10.37,2013-03-02 04:29:00,
2013-03-01 22:34:00,34.8,28.3,30.17,WNW,299,8.1,8.1,77,0.00,CLR,,0.00,WeatherDisplay:10.37,2013-03-02 04:34:00,
2013-03-01 22:39:00,34.7,28.2,30.17,NW,313,6.9,6.9,77,0.00,CLR,,0.00,WeatherDisplay:10.37,2013-03-02 04:39:00,
2013-03-01 22:44:00,34.5,28.3,30.17,NNW,347,4.0,4.0,78,0.00,CLR,,0.00,WeatherDisplay:10.37,2013-03-02 04:44:00,
2013-03-01 22:49:00,34.4,28.2,30.17,NNW,338,4.6,4.6,78,0.00,CLR,,0.00,WeatherDisplay:10.37,2013-03-02 04:49:00,
2013-03-01 22:54:00,34.4,28.2,30.17,WNW,284,6.9,6.9,78,0.00,CLR,,0.00,WeatherDisplay:10.37,2013-03-02 04:54:00,
2013-03-01 22:59:00,34.4,28.2,30.17,NNW,344,10.4,10.4,78,0.00,CLR,,0.00,WeatherDisplay:10.37,2013-03-02 04:59:00,
2013-03-01 23:00:00,34.4,28.2,30.17,NNW,331,10.4,10.4,78,0.00,CLR,,0.00,WeatherDisplay:10.37,2013-03-02 05:00:00,
2013-03-01 23:01:00,34.4,28.2,30.17,WNW,291,10.4,10.4,78,0.00,CLR,,0.00,WeatherDisplay:10.37,2013-03-02 05:01:00,
2013-03-01 23:06:00,34.4,28.6,30.17,West,265,3.5,3.5,79,0.00,CLR,,0.00,WeatherDisplay:10.37,2013-03-02 05:06:00,
2013-03-01 23:11:00,34.4,28.6,30.17,NW,309,4.6,4.6,79,0.00,CLR,,0.00,WeatherDisplay:10.37,2013-03-02 05:11:00,
2013-03-01 23:16:00,34.4,28.6,30.17,NNW,327,3.5,3.5,79,0.00,CLR,,0.00,WeatherDisplay:10.37,2013-03-02 05:16:00,
2013-03-01 23:21:00,34.4,28.6,30.17,NW,313,3.5,3.5,79,0.00,CLR,,0.00,WeatherDisplay:10.37,2013-03-02 05:21:00,
2013-03-01 23:26:00,34.3,28.8,30.17,WNW,292,5.8,5.8,80,0.00,CLR,,0.00,WeatherDisplay:10.37,2013-03-02 05:26:00,
2013-03-01 23:31:00,34.3,28.8,30.17,West,278,3.5,3.5,80,0.00,CLR,,0.00,WeatherDisplay:10.37,2013-03-02 05:31:00,
2013-03-01 23:36:00,34.2,28.7,30.17,NNW,327,10.4,10.4,80,0.00,CLR,,0.00,WeatherDisplay:10.37,2013-03-02 05:36:00,
2013-03-01 23:41:00,34.0,28.8,30.17,NW,316,6.0,6.0,81,0.00,CLR,,0.00,WeatherDisplay:10.37,2013-03-02 05:41:00,
2013-03-01 23:46:00,33.9,28.7,30.16,West,272,6.9,6.9,81,0.00,CLR,,0.00,WeatherDisplay:10.37,2013-03-02 05:46:00,
2013-03-01 23:51:00,33.8,28.9,30.16,WNW,286,4.6,4.6,82,0.00,CLR,,0.00,WeatherDisplay:10.37,2013-03-02 05:51:00,
2013-03-01 23:56:00,33.7,28.8,30.16,NNW,338,12.0,12.0,82,0.00,CLR,,0.00,WeatherDisplay:10.37,2013-03-02 05:56:00,